#timestamp,LO_Frequency,Hit,StdDev 
1564106415.6,286046998.2,N
1564106435.4,286046999.8,N
1564106455.3,286047000.9,N
1564106475.1,286046999.0,N
1564106495.9,286046995.4,Y
1564106515.7,286046994.9,P
1564106535.5,286046999.6,N
1564106555.4,286046998.7,N
1564106575.2,286046998.3,N
1564106595.1,286046996.7,N
1564106596.0,286046996.7,N
1564106615.8,286046999.0,N
1564106635.6,286046999.2,N
1564106655.5,286046999.0,N
1564106675.3,286046998.9,N
1564106695.1,286046997.2,N
1564106715.9,286046995.7,Y
1564106735.7,286046997.7,P
1564106755.6,286046999.5,N
1564106775.4,286046998.0,N
1564106795.2,286046994.9,Y
1564106815.1,286047001.1,P
1564106816.0,286047001.1,N
1564106835.8,286047001.8,N
1564106855.7,286047002.6,N
1564106875.5,286047000.0,N
1564106895.3,286047000.7,N
1564106915.2,286046998.4,N
1564106935.0,286046999.3,N
1564106935.9,286046999.3,N
1564106955.8,286046998.4,N
1564106975.6,286046999.3,N
1564106995.4,286046999.0,N
1564107015.3,286046998.4,N
1564107035.1,286046998.6,N
1564107055.8,286046999.9,N
1564107075.7,286046999.9,N
1564107095.5,286047001.0,N
1564107115.4,286046999.7,N
1564107135.2,286047001.9,N
1564107155.0,286047000.4,N
1564107155.9,286047000.4,N
1564107175.8,286047000.3,N
1564107195.6,286047003.2,N
1564107215.5,286047005.4,Y
1564107235.3,286047005.1,P
1564107255.1,286047005.5,N
1564107275.9,286047005.8,N
1564107295.7,286047003.1,N
1564107315.5,286047005.6,N
1564107335.4,286047003.2,N
1564107355.2,286047005.0,N
1564107375.1,286047006.4,Y
1564107376.0,286047006.4,P
1564107395.8,286047002.0,N
1564107415.7,286047001.1,N
1564107435.5,286046998.6,N
1564107455.3,286047000.9,N
1564107475.2,286047001.2,N
1564107495.0,286047000.2,N
1564107495.9,286047000.2,N
1564107515.8,286046998.4,N
1564107535.6,286047000.8,N
1564107555.4,286047002.4,N
1564107575.3,286047000.0,N
1564107595.1,286047002.7,N
1564107615.8,286047003.9,N
1564107635.7,286046999.9,N
1564107655.5,286047002.5,N
1564107675.4,286047002.7,N
1564107695.2,286047004.0,N
1564107715.0,286047001.4,N
1564107715.9,286047001.4,N
1564107735.8,286047001.7,N
1564107755.6,286047001.7,N
1564107775.5,286047001.4,N
1564107795.3,286047000.4,N
1564107815.1,286047000.0,N
1564107835.9,286047002.6,N
1564107855.7,286047002.6,N
1564107875.5,286047003.9,N
1564107895.4,286047002.3,N
1564107915.2,286047004.3,N
1564107935.1,286047001.4,N
1564107936.0,286047001.4,N
1564107955.8,286047002.1,N
1564107975.6,286046999.9,N
1564107995.5,286047000.2,N
1564108015.3,286047000.3,N
1564108035.1,286047000.4,N
1564108055.9,286047002.4,N
1564108075.7,286047002.4,N
1564108095.6,286047000.6,N
1564108115.4,286047000.9,N
1564108135.2,286047000.0,N
1564108155.1,286047000.5,N
1564108156.0,286047000.5,N
1564108175.8,286046998.5,N
1564108195.7,286047000.3,N
1564108215.5,286046998.4,N
1564108235.3,286046998.6,N
1564108255.2,286046999.7,N
1564108275.0,286046998.8,N
1564108275.9,286046998.8,N
1564108295.8,286046998.6,N
1564108315.6,286047002.1,N
1564108335.4,286047003.9,N
1564108355.3,286047003.9,N
1564108375.1,286047001.4,N
1564108395.9,286047005.6,Y
1564108415.7,286047005.6,P
1564108435.5,286047003.4,N
1564108455.4,286047003.0,N
1564108475.2,286047004.1,N
1564108495.1,286047003.7,N
1564108496.0,286047003.7,N
1564108515.8,286047001.3,N
1564108535.6,286047003.5,N
1564108555.5,286047003.3,N
1564108575.3,286047005.7,Y
1564108595.1,286046998.6,P
1564108615.9,286047001.1,N
1564108635.7,286047001.0,N
1564108655.6,286047000.4,N
1564108675.4,286047000.7,N
1564108695.2,286046998.7,N
1564108715.1,286046996.5,N
1564108716.0,286046996.5,N
1564108735.8,286046998.8,N
1564108755.7,286046998.4,N
1564108775.5,286047001.2,N
1564108795.3,286046998.1,N
1564108815.2,286046998.3,N
1564108835.0,286046998.1,N
1564108835.9,286046998.1,N
1564108855.8,286047000.4,N
1564108875.6,286047001.1,N
1564108895.4,286046998.5,N
1564108915.3,286046999.1,N
1564108935.1,286046996.7,N
1564108955.8,286046999.1,N
1564108975.7,286046998.3,N
1564108995.5,286046998.1,N
1564109015.4,286046998.2,N
1564109035.2,286046998.7,N
1564109055.0,286046999.3,N
1564109055.9,286046999.3,N
1564109075.8,286046996.9,N
1564109095.6,286046999.0,N
1564109115.4,286046997.5,N
1564109135.3,286046997.4,N
1564109155.1,286046997.1,N
1564109175.9,286046996.8,N
1564109195.7,286046997.1,N
1564109215.5,286046997.0,N
1564109235.4,286046997.3,N
1564109255.2,286046996.7,N
1564109275.1,286046998.0,N
1564109276.0,286046998.0,N
1564109295.8,286046995.0,Y
1564109315.6,286046996.8,P
1564109335.5,286046996.7,P
1564109355.3,286046997.6,P
1564109375.1,286046996.8,Y
1564109395.9,286046998.3,P
1564109415.7,286046998.7,N
1564109435.6,286047000.5,N
1564109455.4,286047000.7,N
1564109475.2,286046999.0,N
1564109495.1,286046996.9,N
1564109496.0,286046996.9,N
1564109515.8,286046996.5,N
1564109535.7,286046998.8,N
1564109555.5,286046997.0,N
1564109575.3,286046998.8,N
1564109595.2,286046999.6,N
1564109615.0,286047001.2,N
1564109615.9,286047001.2,N
1564109635.7,286047001.2,N
1564109655.6,286047002.4,N
1564109675.4,286047000.6,N
1564109695.3,286047001.2,N
1564109715.1,286047000.5,N
1564109735.8,286047000.2,N
1564109755.7,286046999.7,N
1564109775.5,286047002.6,N
1564109795.4,286047000.1,N
1564109815.2,286046999.9,N
1564109835.0,286047000.0,N
1564109835.9,286047000.0,N
1564109855.8,286047000.5,N
1564109875.6,286046999.7,N
1564109895.5,286047000.0,N
1564109915.3,286047000.7,N
1564109935.1,286047000.2,N
1564109955.9,286046998.5,N
1564109975.7,286047000.0,N
1564109995.5,286046998.2,N
